Regional Weather Roundup
Issued by NWS

Home | Current Version | Previous Version | Graphics & Text | Print | Product List | Glossary On
Versions: 1 2 3 4 5 6 7 8 9 10 11 12 13 14 15 16 17 18 19 20 21 22 23 24 25 26 27 28 29 30 31 32 33 34 35 36 37 38 39 40 41 42 43 44 45 46 47 48 49 50
000
ASUS45 KBOU 252007
RWRCO

WEATHER ROUNDUP FOR COLORADO
NATIONAL WEATHER SERVICE DENVER/BOULDER CO
200 PM MDT MON SEP 25 2017

NOTE: "FAIR" INDICATES FEW OR NO CLOUDS BELOW 12000 FEET WITH NO
SIGNIFICANT WEATHER AND/OR OBSTRUCTIONS TO VISIBILITY.

COZ001>005-013-030-031-252100-
...NORTHWEST COLORADO...

CITY           SKY/WX    TMP DP  RH WIND       PRES   REMARKS
CRAIG          CLOUDY    53  26  35 NW9       30.10F
HAYDEN         FAIR      50  28  42 NW12G18   30.11F
MEEKER         FAIR      55  27  34 VRB7      30.08F
RABBIT EARS PA CLOUDY    34  28  80 W6        30.17S WCI  29
STEAMBOAT SPGS PTSUNNY   50  29  44 W9        30.09F
WALDEN         PTSUNNY   50  25  37 SW6       30.10F
$$

COZ006>008-011-252100-
...WEST CENTRAL VALLEYS...

CITY           SKY/WX    TMP DP  RH WIND       PRES   REMARKS
GRAND JUNCTION FAIR      62  31  31 W8        30.04F
MONTROSE       FAIR      56  28  34 N10       30.06F
EAGLE          FAIR      58  19  22 VRB6      30.04F
RIFLE          FAIR      59  30  33 VRB5      30.03F
DELTA          FAIR      62  26  25 CALM      30.04
NUCLA          FAIR      59  23  25 W9        30.09F
$$

COZ017>023-064>068-252100-
...SOUTHWEST COLORADO...

CITY           SKY/WX    TMP DP  RH WIND       PRES   REMARKS
DURANGO        FAIR      61  10  13 VRB7G17   30.04F
CORTEZ         FAIR      63  17  17 VRB5      30.05F
PAGOSA SPRINGS FAIR      59   5  11 S6        30.07F
TELLURIDE      FAIR      51  13  21 NW8       30.13F
WOLF CREEK PAS FAIR      36  12  38 S17G24    30.26F
$$

COZ009-010-012-014-032>034-037-058>063-252100-
...CENTRAL COLORADO...

CITY           SKY/WX    TMP DP  RH WIND       PRES   REMARKS
ASPEN          FAIR      54  20  26 NW13G20   30.04F
BUENA VISTA    FAIR      59  24  25 SE10G22   30.01F
COPPER MTN     CLOUDY    37   9  30 W6        30.19S
BERTHOUD PASS  PTSUNNY   27  18  69 N5        30.21F HAZE    WCI  21
COTTONWOOD PAS FAIR      55  12  18 S13G22    30.10F
GUNNISON       FAIR      57   8  14 SW8G16    30.04
KREMMLING      FAIR      63   0   8 W7        30.05F
LEADVILLE      FAIR      48   5  17 MISG      30.07F
MONARCH PASS   FAIR      41   1  19 W21       30.30F
SALIDA         FAIR      56  37  48 E15G22    30.09F
SUNLIGHT       FAIR      39  23  52 SW12G24   30.20F
WILKERSON PASS CLOUDY    39  30  70 CALM      30.21F
$$

COZ069>075-252100-
...SAN LUIS VALLEY/SANGRE DE CRISTO MOUNTAINS...

CITY           SKY/WX    TMP DP  RH WIND       PRES   REMARKS
ALAMOSA        FAIR      65  10  11 SW13      30.00F
DEL NORTE      FAIR      61  15  16 SE8       30.03F
LA VETA PASS   DRZL/FOG  39  37  93 N8G20     30.27F VSB 1/4
SAGUACHE       FAIR      61  19  20 S12       30.03F
$$

COZ035-036-038>040-252100-
...NORTHERN COLORADO FRONT RANGE...

CITY           SKY/WX    TMP DP  RH WIND       PRES   REMARKS
DENVER INTL AP PTSUNNY   53  42  66 NE7       30.08S
DMNS CITY PARK   N/A     51  42  69 E13       30.06F
AURORA         PTSUNNY   51  41  70 NE3       30.08F
FRONT RANGE AP PTSUNNY   52  45  76 N7        30.09F
ERIE MUNI ARPT CLOUDY    53  42  67 E5        30.12F
BOULDER MUN AP CLOUDY    50  41  71 NW3       30.07F
CENTENNIAL     PTSUNNY   50  41  71 N7        30.07F
BROOMFIELD     PTSUNNY   52  41  66 E3        30.08F
FORT COLLINS   PTSUNNY   53  42  66 SE8       30.08F
LONGMONT       CLOUDY    55  43  64 CALM      30.09F
$$

COZ041-046-047-076>085-087-088-252100-
...PIKES PEAK/PALMER DIVIDE AND SOUTHERN FOOTHILLS...

CITY           SKY/WX    TMP DP  RH WIND       PRES   REMARKS
COLO. SPRINGS  LGT RAIN  52  40  63 E7        30.09F
A. F. ACADEMY  PTSUNNY   49  39  67 NW7       30.08F
SCHRIEVER AFB  PTSUNNY   52  38  60 NE7       30.08F
CHEYENNE MTN   CLOUDY    47  42  83 CALM      30.05F
ELLICOTT       PTSUNNY  N/A N/A N/A E6        30.06F
FALCON         CLOUDY    51  38  60 NE7       30.10F
FORT CARSON    DRIZZLE   54  41  62 CALM      30.07S
LIMON            N/A    N/A N/A N/A MISG      30.07F
MONUMENT HILL  CLOUDY    43  37  81 NE3       30.12F
CANON CITY     NOT AVBL
WALSENBURG     NOT AVBL
TRINIDAD       CLOUDY    51  48  89 N9        30.06S FOG
$$

COZ042>045-048>051-090-091-252100-
...NORTHEAST COLORADO...

CITY           SKY/WX    TMP DP  RH WIND       PRES   REMARKS
GREELEY ARPT   PTSUNNY   54  42  64 CALM      30.08F
AKRON          CLOUDY    50  42  74 N9        30.07F
BURLINGTON     LGT RAIN  49  48  97 N12       30.06S FOG
WRAY           CLOUDY    50  46  87 N9        30.07F FOG
YUMA           CLOUDY    46  45  93 N7        30.07F
STERLING       CLOUDY    52  43  71 N8        30.07F
HOLYOKE        CLOUDY    54  43  66 N13       30.07F
FORT MORGAN    CLOUDY    53  40  61 N6        30.07F
$$

COZ086-089-092>099-252100-
...SOUTHEAST COLORADO...

CITY           SKY/WX    TMP DP  RH WIND       PRES   REMARKS
PUEBLO         CLOUDY    58  45  62 S7        30.04F
LA JUNTA       CLOUDY    56  48  74 NE10      30.04S
LAMAR          CLOUDY    54  49  83 NE9       30.01S
SPRINGFIELD      N/A     51  51 100 N13       30.01R
$$



USA.gov is the U.S. government's official web portal to all federal, state and local government web resources and services.